Regional Weather Roundup
Issued by NWS

Home | Current Version | Previous Version | Text Only | Print | Product List | Glossary Off
Versions: 1 2 3 4 5 6 7 8 9 10 11 12 13 14 15 16 17 18 19 20 21 22 23 24 25 26 27 28 29 30 31 32 33 34 35 36 37 38 39 40 41 42 43 44 45 46 47 48 49 50

000
ASUS45 KSLC 200810
RWRUT

UTAH REGIONAL WEATHER ROUNDUP
NATIONAL WEATHER SERVICE SALT LAKE CITY UT
100 AM MST MON FEB 20 2017

UTZ001>011-023>025-200900-

NORTHERN UTAH

CITY           SKY/WX    TMP DP  RH WIND       PRES   REMARKS
BRIGHAM CITY     N/A     35  32  89 CALM      29.93R
HILL AFB       PTCLDY    39  32  75 SE12      29.93R WCI  32
LOGAN          NOT AVBL
OGDEN          CLEAR     38  33  82 S12       29.92R WCI  30
SALT LAKE CITY PTCLDY    42  36  79 SE12      29.93R
TOOELE VALLEY  CLEAR     45  36  70 S16G22    29.92R
WENDOVER       PTCLDY    36  28  75 N5        29.91R WCI  32
HEBER CITY     PTCLDY    30  28  93 CALM      29.98R
WEST JORDAN    CLEAR     44  44  97 S15       29.95R

$$

UTZ011>015-024>027-200900-

CENTRAL/NORTHEAST UTAH

CITY           SKY/WX    TMP DP  RH WIND       PRES   REMARKS
PROVO AIRPORT  CLEAR     37  35  92 SE3       29.98R
DELTA          CLEAR     41  34  75 S17       29.99R
PRICE          MOCLDY    33  33 100 N3        30.01R
RICHFIELD      CLEAR     39  30  70 SE5       30.03R
ROOSEVELT      FOG       36  34  93 N3        30.03R VSB 1/2
VERNAL         CLOUDY    33  31  92 W5        30.01R WCI  29

$$

UTZ013>016-019>022-027-200900-

SOUTHERN UTAH

CITY           SKY/WX    TMP DP  RH WIND       PRES   REMARKS
BRYCE CANYON   CLEAR     28  24  85 W7        30.07R WCI  21
CEDAR CITY     MOCLDY    35  34  96 SW3       30.06R
MILFORD        MOCLDY    42  34  73 S20       30.02S
ST GEORGE      CLOUDY    47  42  83 CALM      30.08R
HANKSVILLE     CLEAR     32  32 100 NE5       30.03S WCI  27
KANAB          MOCLDY    36  36 100 N3        30.13R
BLANDING       CLEAR     33  32  96 NE5       30.10R WCI  28

$$

REGIONAL REPORTS     COLORADO/ARIZONA

CITY           SKY/WX    TMP DP  RH WIND       PRES   REMARKS
CRAIG, CO      CLOUDY    27  23  85 SW3       30.00S
GRAND JUNCTION CLOUDY    39  39 100 E3        30.02R
RIFLE, CO      CLOUDY    36  34  92 S6        30.01R WCI  31
MONTROSE, CO   CLOUDY    36  35  96 SE5       30.06R WCI  32
CORTEZ, CO     CLOUDY    37  35  92 E5        30.04R WCI  33
COLORADO CITY  CLOUDY    41  39  93 CALM      30.12R
PAGE, AZ       CLEAR     40  32  73 SE8       30.05R WCI  34
GRAND CANYON   CLOUDY    35  35 100 SW8       30.12S WCI  29
KINGMAN, AZ    PTCLDY    42  38  85 S6        30.11S
FLAGSTAFF, AZ  CLOUDY    34  29  82 W9        30.13R WCI  27

$$

REGIONAL REPORTS    NEVADA/IDAHO/WYOMING

CITY           SKY/WX    TMP DP  RH WIND       PRES   REMARKS
LAS VEGAS, NV  CLOUDY    54  45  71 S3        30.02R
ELY, NY        CLOUDY    38  33  82 S10       30.01R WCI  31
ELKO, NV       LGT RAIN  41  37  86 CALM      29.90R
POCATELLO, ID  CLEAR     29  27  92 N5        29.89S WCI  24
FORT BRIDGER,    N/A     32  25  74 SW12      29.98R WCI  23
EVANSTON, WY   CLOUDY    28  21  75 SE7       29.95S WCI  21
ROCK SPRINGS,  CLEAR     29  24  82 SW9       29.95R WCI  20

$$



USA.gov is the U.S. government's official web portal to all federal, state and local government web resources and services.